Location: La Comballaz
(46.3780°N, 7.0817°E)
Time: 23:12:31
(UTC+00:00)

Cosmos 1825 - Pass Details

Date: 09 April 2020
Orbit: 502 x 509 km, 82.5° (Epoch: 03 June)

Event Time Altitude Azimuth Distance (km) Brightness Sun altitude
Rises 21:36:16 0° 342° (NNW) 2,628 6.9 -29.7°
Reaches altitude 10° 21:38:32 10° 333° (NNW) 1,736 5.8 -29.9°
Enters shadow 21:40:25 23° 312° (NW) 1,107 4.4 -30.1°
